Radiation Dose measured at Intake/Vertical shaft monitor
Date,Time,Intake(cps),Vertical shaft(cps),Rain
2024/04/18,00:00,5.7,4.7,No
2024/04/18,00:10,5.7,4.8,No
2024/04/18,00:20,5.6,4.7,No
2024/04/18,00:30,5.5,4.7,No
2024/04/18,00:40,5.8,4.8,No
2024/04/18,00:50,5.8,4.9,No
2024/04/18,01:00,5.7,4.7,No
2024/04/18,01:10,5.8,4.9,No
2024/04/18,01:20,5.8,5.0,No
2024/04/18,01:30,5.7,4.6,No
2024/04/18,01:40,5.7,4.8,No
2024/04/18,01:50,5.6,4.8,No
2024/04/18,02:00,5.7,4.8,No
2024/04/18,02:10,5.6,4.9,No
2024/04/18,02:20,5.5,4.8,No
2024/04/18,02:30,5.5,4.9,No
2024/04/18,02:40,5.6,4.9,No
2024/04/18,02:50,5.7,4.7,No
2024/04/18,03:00,5.6,4.9,No
2024/04/18,03:10,5.8,4.9,No
2024/04/18,03:20,5.6,4.8,No
2024/04/18,03:30,5.7,4.8,No
2024/04/18,03:40,5.6,4.8,No
2024/04/18,03:50,5.7,4.8,No
2024/04/18,04:00,5.7,4.9,No
2024/04/18,04:10,5.8,4.7,No
2024/04/18,04:20,5.6,4.8,No
2024/04/18,04:30,5.6,4.7,No
2024/04/18,04:40,5.7,4.9,No
2024/04/18,04:50,5.8,4.8,No
2024/04/18,05:00,5.7,4.9,No
2024/04/18,05:10,5.5,5.0,No
2024/04/18,05:20,5.6,4.8,No
2024/04/18,05:30,5.5,4.8,No
2024/04/18,05:40,5.7,4.9,No
2024/04/18,05:50,5.6,4.7,No
2024/04/18,06:00,5.7,4.7,No
2024/04/18,06:10,5.6,4.9,No
2024/04/18,06:20,5.7,4.8,No
2024/04/18,06:30,5.7,4.7,No
2024/04/18,06:40,5.7,4.8,No
2024/04/18,06:50,5.8,4.7,No
2024/04/18,07:00,5.6,4.9,No
2024/04/18,07:10,5.7,4.7,No
2024/04/18,07:20,5.6,4.9,No
2024/04/18,07:30,5.8,4.7,No
2024/04/18,07:40,5.7,4.8,No
2024/04/18,07:50,5.6,4.8,No
2024/04/18,08:00,5.5,4.6,No
2024/04/18,08:10,5.7,4.9,No
2024/04/18,08:20,5.6,4.8,No
2024/04/18,08:30,5.6,4.9,No
2024/04/18,08:40,5.7,4.8,No
2024/04/18,08:50,5.7,4.9,No
2024/04/18,09:00,5.5,4.9,No
2024/04/18,09:10,5.6,4.8,No
2024/04/18,09:20,5.5,4.8,No
2024/04/18,09:30,5.5,4.8,No
2024/04/18,09:40,5.7,4.7,No
2024/04/18,09:50,5.7,4.9,No
2024/04/18,10:00,5.6,4.9,No
2024/04/18,10:10,5.7,5.0,No
2024/04/18,10:20,5.8,4.8,No
2024/04/18,10:30,5.7,4.8,No
2024/04/18,10:40,5.8,4.7,No
2024/04/18,10:50,5.7,4.9,No
2024/04/18,11:00,5.8,4.8,No
2024/04/18,11:10,5.8,4.8,No
2024/04/18,11:20,5.6,5.0,No
2024/04/18,11:30,5.6,4.9,No
2024/04/18,11:40,5.7,4.9,No
2024/04/18,11:50,5.7,4.9,No
2024/04/18,12:00,5.8,4.9,No
2024/04/18,12:10,5.5,4.8,No
2024/04/18,12:20,5.8,4.7,No
2024/04/18,12:30,5.7,4.8,No
2024/04/18,12:40,5.8,4.9,No
2024/04/18,12:50,5.8,4.9,No
2024/04/18,13:00,5.8,4.8,No
2024/04/18,13:10,5.6,4.8,No
2024/04/18,13:20,5.7,4.7,No
2024/04/18,13:30,5.8,4.6,No
2024/04/18,13:40,5.7,4.6,No
2024/04/18,13:50,5.8,4.5,No
2024/04/18,14:00,5.7,4.6,No
2024/04/18,14:10,5.7,4.6,No
2024/04/18,14:20,5.8,4.5,No
2024/04/18,14:30,5.7,4.6,No
2024/04/18,14:40,5.6,4.6,No
2024/04/18,14:50,5.5,4.5,No
2024/04/18,15:00,5.5,4.4,No
2024/04/18,15:10,5.7,4.6,No
2024/04/18,15:20,5.6,4.4,No
2024/04/18,15:30,5.6,4.4,No
2024/04/18,15:40,5.7,4.6,No
2024/04/18,15:50,5.6,4.6,No
2024/04/18,16:00,5.7,4.5,No
2024/04/18,16:10,5.7,4.4,No
2024/04/18,16:20,5.7,4.4,No
2024/04/18,16:30,5.7,4.6,No
2024/04/18,16:40,5.5,4.4,No
2024/04/18,16:50,5.5,4.4,No
2024/04/18,17:00,5.6,4.3,No
2024/04/18,17:10,5.7,4.5,No
2024/04/18,17:20,5.7,4.5,No
2024/04/18,17:30,5.6,4.4,No
2024/04/18,17:40,5.8,4.5,No
2024/04/18,17:50,5.6,4.6,No
2024/04/18,18:00,5.8,4.5,No
2024/04/18,18:10,5.7,4.4,No
2024/04/18,18:20,5.8,4.4,No
2024/04/18,18:30,5.9,4.5,No
2024/04/18,18:40,5.6,4.5,No
2024/04/18,18:50,5.8,4.6,No
2024/04/18,19:00,5.6,4.5,No
2024/04/18,19:10,5.6,4.6,Yes
2024/04/18,19:20,5.6,4.4,Yes
2024/04/18,19:30,5.6,4.5,Yes
2024/04/18,19:40,5.7,4.5,Yes
2024/04/18,19:50,5.6,4.5,No
2024/04/18,20:00,5.7,4.5,No
2024/04/18,20:10,5.6,4.4,No
2024/04/18,20:20,5.6,4.5,No
2024/04/18,20:30,5.7,4.5,No
2024/04/18,20:40,5.8,4.4,No
2024/04/18,20:50,5.7,4.4,No
2024/04/18,21:00,5.7,4.6,No
2024/04/18,21:10,5.8,4.5,No
2024/04/18,21:20,5.7,4.3,No
2024/04/18,21:30,5.8,4.5,No
2024/04/18,21:40,5.6,4.4,No
2024/04/18,21:50,5.7,4.5,No
2024/04/18,22:00,5.7,4.3,No
2024/04/18,22:10,5.7,4.6,No
2024/04/18,22:20,5.7,4.5,No
2024/04/18,22:30,5.8,4.3,No
2024/04/18,22:40,5.6,4.5,No
2024/04/18,22:50,5.7,4.5,No
2024/04/18,23:00,5.6,4.4,No
2024/04/18,23:10,5.8,4.5,No
2024/04/18,23:20,5.8,4.4,No
2024/04/18,23:30,5.7,4.4,No
2024/04/18,23:40,5.7,4.4,No
2024/04/18,23:50,5.8,4.4,No
